Fort Drum, NY

5:36 AM EST on December 08, 2019 (GMT -0500)
Wheeler-Sack Army Air Field

Weather History for KGTB - November, 2019

Change the Weather History Date:

Saturday, November 16, 2019

  Actual Average Record
Temperature  
Mean Temperature 14 °F -  
Max Temperature 23 °F 42 °F 66 °F (2005)
Min Temperature 6 °F 27 °F 6 °F (2019)
Degree Days  
Heating Degree Days 50    
Moisture  
Dew Point 2 °F    
Average Humidity 59    
Maximum Humidity 74    
Minimum Humidity 40    
Precipitation  
Precipitation 0.00 in - - ()
Sea Level Pressure  
Sea Level Pressure 30.57 in    
Wind  
Wind Speed 7 mph (NE)    
Max Wind Speed 14 mph    
Max Gust Speed -    
Visibility 10 miles    
Events      
Averages and records for this station are not official NWS values.
T = Trace of Precipitation, MM = Missing Value Source: NWS Daily Summary

Daily Weather History Graph

Daily Weather History Graph

Search for Another Location

Airport or City:

Astronomy

Nov. 16, 2019 Rise Set
Actual Time 6:58 AM EST 4:35 PM EST
Civil Twilight 6:27 AM EST 5:07 PM EST
Nautical Twilight 5:52 AM EST 5:42 PM EST
Astronomical Twilight 5:18 AM EST 6:16 PM EST
Moon 8:02 PM EST (11/16) 10:54 AM EST (11/16)
Length of Visible Light 10h 39m
Length of Day
9h 36m
Waning Gibbous, 82% of the Moon is Illuminated
Nov 16
Waning Gibbous
Nov 19
Last Quarter
Nov 26
New
Dec 4
First Quarter
Dec 12
Full

Hourly Weather History & Observations

Time (EST) Temp. Windchill Dew Point Humidity Pressure Visibility Wind Dir Wind Speed Gust Speed Precip Events Conditions
12:56 AM 16.0 °F 4.4 °F 3.0 °F 57% 30.48 in 10.0 mi North 9.2 mph - N/A   Clear
1:56 AM 13.1 °F 5.4 °F 2.5 °F 63% 30.51 in 10.0 mi NNE 4.6 mph - N/A   Clear
2:56 AM 11.5 °F -0.2 °F 1.6 °F 64% 30.53 in 10.0 mi NE 8.1 mph - N/A   Clear
3:56 AM 9.5 °F -2.6 °F 0.3 °F 66% 30.54 in 10.0 mi NNE 8.1 mph - N/A   Clear
4:56 AM 9.1 °F -3.0 °F 0.7 °F 69% 30.57 in 10.0 mi NE 8.1 mph - N/A   Clear
5:56 AM 8.2 °F -1.8 °F 0.5 °F 71% 30.58 in 10.0 mi NE 5.8 mph - N/A   Clear
6:56 AM 6.6 °F -3.7 °F -0.2 °F 74% 30.60 in 10.0 mi ENE 5.8 mph - N/A   Clear
7:56 AM 8.4 °F -0.1 °F 1.2 °F 73% 30.62 in 10.0 mi East 4.6 mph - N/A   Clear
8:56 AM 10.9 °F 1.4 °F 1.8 °F 67% 30.64 in 10.0 mi East 5.8 mph - N/A   Clear
9:56 AM 13.6 °F 4.6 °F 3.0 °F 63% 30.65 in 10.0 mi East 5.8 mph - N/A   Clear
10:56 AM 17.6 °F 8.2 °F 4.5 °F 56% 30.64 in 10.0 mi ENE 6.9 mph - N/A   Clear
11:56 AM 20.8 °F 7.9 °F 2.3 °F 45% 30.61 in 10.0 mi ENE 13.8 mph - N/A   Clear
12:56 PM 23.4 °F 16.2 °F 1.9 °F 40% 30.59 in 10.0 mi NE 5.8 mph - N/A   Clear
1:56 PM 23.2 °F 12.0 °F 4.5 °F 45% 30.57 in 10.0 mi NNE 11.5 mph - N/A   Clear
2:56 PM 23.7 °F 14.0 °F 3.9 °F 43% 30.56 in 10.0 mi NE 9.2 mph - N/A   Clear
3:56 PM 21.6 °F 12.1 °F 3.0 °F 45% 30.58 in 10.0 mi North 8.1 mph - N/A   Clear
4:56 PM 18.7 °F 8.6 °F 0.9 °F 46% 30.57 in 10.0 mi NE 8.1 mph - N/A   Clear
5:56 PM 16.7 °F 7.2 °F 1.6 °F 52% 30.58 in 10.0 mi NE 6.9 mph - N/A   Clear
6:56 PM 14.7 °F 5.9 °F 1.8 °F 57% 30.58 in 10.0 mi NE 5.8 mph - N/A   Clear
7:56 PM 13.1 °F 4.0 °F 1.8 °F 61% 30.57 in 10.0 mi ENE 5.8 mph - N/A   Clear
8:56 PM 13.5 °F 4.4 °F 2.1 °F 61% 30.55 in 10.0 mi East 5.8 mph - N/A   Clear
9:56 PM 11.5 °F 3.5 °F 1.6 °F 64% 30.54 in 10.0 mi East 4.6 mph - N/A   Clear
10:56 PM 10.4 °F -0.4 °F 1.2 °F 66% 30.51 in 10.0 mi East 6.9 mph - N/A   Clear
11:56 PM 8.4 °F -2.8 °F -0.4 °F 67% 30.48 in 10.0 mi ENE 6.9 mph - N/A   Clear